This is the latest recevied weather packets stored in our database for station/object K0QJ. If no packets are shown the sender has not sent any weather packets the latest 10 day(s).
| Time | Temp. | Humidity | Pressure | Rain* | Wind** | Luminosity | Snow |
|---|---|---|---|---|---|---|---|
| 1777905230 | 20° C | 57% | 1002.6 hPa | 0 mm | - | 495 W/m² | - |
| 1777904927 | 20° C | 57% | 1002.8 hPa | 0 mm | - | 88 W/m² | - |
| 1777904624 | 19.44° C | 57% | 1003 hPa | 0 mm | - | 147 W/m² | - |
| 1777904322 | 19.44° C | 57% | 1002.7 hPa | 0 mm | - | 90 W/m² | - |
| 1777904019 | 19.44° C | 57% | 1003 hPa | 0 mm | - | 68 W/m² | - |
| 1777903715 | 19.44° C | 57% | 1002.7 hPa | 0 mm | - | 121 W/m² | - |
| 1777903411 | 19.44° C | 56% | 1002.8 hPa | 0 mm | - | 108 W/m² | - |
| 1777903108 | 19.44° C | 57% | 1002.8 hPa | 0 mm | - | 104 W/m² | - |
| 1777902804 | 19.44° C | 56% | 1003 hPa | 0 mm | - | 130 W/m² | - |
| 1777902502 | 18.89° C | 58% | 1002.8 hPa | 0 mm | - | 108 W/m² | - |
| 1777902198 | 18.89° C | 57% | 1002.8 hPa | 0 mm | - | 97 W/m² | - |
| 1777901897 | 18.89° C | 57% | 1003.1 hPa | 0 mm | - | 75 W/m² | - |
| 1777901594 | 18.89° C | 57% | 1002.6 hPa | 0 mm | - | 79 W/m² | - |
| 1777901291 | 18.89° C | 57% | 1002.6 hPa | 0 mm | - | 47 W/m² | - |
| 1777900989 | 19.44° C | 57% | 1002.6 hPa | 0 mm | - | 52 W/m² | - |
| 1777900686 | 18.89° C | 57% | 1002.6 hPa | 0 mm | - | 89 W/m² | - |
| 1777900383 | 18.89° C | 58% | 1002.4 hPa | 0 mm | - | 96 W/m² | - |
| 1777900080 | 18.89° C | 58% | 1002.7 hPa | 0 mm | - | 81 W/m² | - |
| 1777899776 | 18.33° C | 58% | 1002.5 hPa | 0 mm | - | 52 W/m² | - |
| 1777899473 | 18.33° C | 58% | 1002.4 hPa | 0 mm | - | 45 W/m² | - |
| 1777899171 | 18.33° C | 59% | 1002.7 hPa | 0 mm | - | 52 W/m² | - |
| 1777898868 | 17.78° C | 59% | 1002.5 hPa | 0 mm | - | 42 W/m² | - |
| 1777898565 | 17.78° C | 59% | 1002.6 hPa | 0 mm | - | 30 W/m² | - |
| 1777898263 | 17.78° C | 59% | 1002.5 hPa | 0 mm | - | 29 W/m² | - |
| 1777897960 | 17.78° C | 59% | 1002.7 hPa | 0 mm | - | 26 W/m² | - |
* Rain latest hour (hover to see other rain measurements)
** Current wind speed in m/s (hover to see current wind gust speed)